SUL6861 SBBR-SBGL

Flight info

Callsign SUL6861
Flight time N/A
Altitude 37000
Route GEPMO UZ24 MAVGU
Aircraft B738/M-SDFGIKLORWX/LB1

Departure

Time 2026-04-30 00:53
Airport Presidente Juscelino Kubitschek International Airport (SBBR)

Arrival

Time N/A
Airport Rio Galeão – Tom Jobim International Airport (SBGL)
Time Latitude Longitude Altitude Speed Heading
2026-04-30 00:17 -15.86855 -47.92654 3466 ft 0 kts 176°
2026-04-30 00:44 -15.86852 -47.92654 3467 ft 3 kts 176°
2026-04-30 00:44 -15.86828 -47.92656 3465 ft 4 kts 173°
2026-04-30 00:44 -15.86806 -47.92664 3464 ft 4 kts 117°
2026-04-30 00:44 -15.86802 -47.92689 3465 ft 2 kts 86°
2026-04-30 00:45 -15.86803 -47.92696 3467 ft 0 kts 86°
2026-04-30 00:49 -15.86802 -47.92693 3465 ft 1 kts 86°
2026-04-30 00:49 -15.86802 -47.92668 3465 ft 5 kts 89°
2026-04-30 00:49 -15.86798 -47.92615 3467 ft 9 kts 85°
2026-04-30 00:50 -15.86788 -47.92538 3469 ft 11 kts 58°
2026-04-30 00:50 -15.86722 -47.92492 3471 ft 12 kts 25°
2026-04-30 00:50 -15.86637 -47.92449 3471 ft 15 kts 27°
2026-04-30 00:50 -15.86545 -47.92391 3468 ft 16 kts 40°
2026-04-30 00:51 -15.86477 -47.92306 3467 ft 15 kts 57°
2026-04-30 00:51 -15.86418 -47.92219 3466 ft 14 kts 55°
2026-04-30 00:51 -15.86363 -47.92136 3465 ft 14 kts 52°
2026-04-30 00:51 -15.86316 -47.92058 3465 ft 13 kts 64°
2026-04-30 00:52 -15.86304 -47.91964 3465 ft 14 kts 87°
2026-04-30 00:52 -15.86293 -47.91757 3462 ft 57 kts 86°
2026-04-30 00:52 -15.86248 -47.91066 3472 ft 131 kts 86°
2026-04-30 00:52 -15.86173 -47.89907 3585 ft 184 kts 86°
2026-04-30 00:53 -15.86111 -47.88541 4401 ft 190 kts 89°
2026-04-30 00:53 -15.86380 -47.87247 5463 ft 187 kts 123°
2026-04-30 00:53 -15.87460 -47.86395 5817 ft 214 kts 161°
2026-04-30 00:53 -15.89028 -47.86224 6048 ft 238 kts 176°
2026-04-30 00:54 -15.90744 -47.86208 6644 ft 250 kts 180°
2026-04-30 00:54 -15.92561 -47.86216 7092 ft 276 kts 175°
2026-04-30 00:54 -15.94500 -47.86040 7952 ft 281 kts 172°
2026-04-30 00:54 -15.96445 -47.85799 8807 ft 283 kts 172°
2026-04-30 00:55 -15.98354 -47.85548 9309 ft 282 kts 172°
2026-04-30 00:55 -16.00327 -47.85286 9978 ft 289 kts 172°
2026-04-30 00:55 -16.04501 -47.84614 10641 ft 326 kts 159°
2026-04-30 00:56 -16.06484 -47.83355 10840 ft 345 kts 140°
2026-04-30 00:56 -16.08314 -47.81668 11263 ft 355 kts 137°
2026-04-30 00:56 -16.09523 -47.80513 11589 ft 359 kts 137°
2026-04-30 00:56 -16.11998 -47.78146 12439 ft 363 kts 137°
2026-04-30 00:57 -16.13242 -47.76969 12857 ft 366 kts 137°
2026-04-30 00:57 -16.15143 -47.75191 13459 ft 370 kts 137°
2026-04-30 00:57 -16.17076 -47.73401 14030 ft 374 kts 137°
2026-04-30 00:57 -16.19030 -47.71604 14559 ft 377 kts 137°
2026-04-30 00:58 -16.21012 -47.69790 15097 ft 380 kts 137°
2026-04-30 00:58 -16.23010 -47.67963 15606 ft 384 kts 137°
2026-04-30 00:58 -16.25035 -47.66115 16072 ft 389 kts 137°
2026-04-30 00:58 -16.27054 -47.64274 16559 ft 392 kts 137°
2026-04-30 00:59 -16.29114 -47.62398 17065 ft 396 kts 137°
2026-04-30 00:59 -16.31198 -47.60500 17554 ft 399 kts 137°
2026-04-30 00:59 -16.33297 -47.58588 18029 ft 403 kts 137°
2026-04-30 00:59 -16.35412 -47.56661 18485 ft 406 kts 137°
2026-04-30 01:00 -16.37545 -47.54718 18889 ft 409 kts 137°
2026-04-30 01:00 -16.39692 -47.52761 19305 ft 411 kts 137°
2026-04-30 01:00 -16.41851 -47.50793 19737 ft 414 kts 137°
2026-04-30 01:00 -16.44023 -47.48812 20137 ft 417 kts 137°
2026-04-30 01:01 -16.46213 -47.46813 20508 ft 421 kts 137°
2026-04-30 01:01 -16.48425 -47.44795 20897 ft 424 kts 137°
2026-04-30 01:01 -16.49892 -47.43456 21168 ft 425 kts 137°
2026-04-30 01:01 -16.52883 -47.40725 21718 ft 428 kts 137°
2026-04-30 01:02 -16.55132 -47.38670 22106 ft 431 kts 137°
2026-04-30 01:02 -16.57389 -47.36608 22505 ft 433 kts 137°
2026-04-30 01:02 -16.59663 -47.34530 22906 ft 435 kts 137°
2026-04-30 01:02 -16.61916 -47.32469 23271 ft 438 kts 137°
2026-04-30 01:03 -16.64213 -47.30368 23629 ft 441 kts 137°
2026-04-30 01:03 -16.66529 -47.28249 23935 ft 443 kts 137°
2026-04-30 01:03 -16.68854 -47.26121 24262 ft 445 kts 137°
2026-04-30 01:03 -16.71182 -47.23989 24587 ft 446 kts 137°
2026-04-30 01:04 -16.73524 -47.21844 24903 ft 448 kts 137°
2026-04-30 01:04 -16.75872 -47.19693 25205 ft 450 kts 138°
2026-04-30 01:04 -16.77435 -47.18260 25405 ft 451 kts 138°
2026-04-30 01:05 -16.90141 -47.06602 26887 ft 462 kts 138°
2026-04-30 01:06 -16.92565 -47.04375 27166 ft 464 kts 138°
2026-04-30 01:06 -16.94990 -47.02146 27456 ft 465 kts 138°
2026-04-30 01:06 -16.97420 -46.99913 27736 ft 467 kts 138°
2026-04-30 01:06 -16.99866 -46.97664 27990 ft 468 kts 138°
2026-04-30 01:07 -17.02317 -46.95409 28257 ft 470 kts 138°
2026-04-30 01:07 -17.04771 -46.93150 28543 ft 471 kts 138°
2026-04-30 01:07 -17.07233 -46.90882 28772 ft 473 kts 138°
2026-04-30 01:07 -17.09677 -46.88630 28936 ft 476 kts 138°
2026-04-30 01:08 -17.12162 -46.86339 29166 ft 478 kts 138°
2026-04-30 01:08 -17.14665 -46.84033 29416 ft 479 kts 138°
2026-04-30 01:08 -17.17221 -46.81778 29650 ft 480 kts 143°
2026-04-30 01:08 -17.20022 -46.79861 29861 ft 482 kts 149°
2026-04-30 01:09 -17.22932 -46.78094 30075 ft 484 kts 150°
2026-04-30 01:09 -17.25865 -46.76362 30253 ft 485 kts 151°
2026-04-30 01:09 -17.28814 -46.74623 30439 ft 486 kts 151°
2026-04-30 01:09 -17.31760 -46.72866 30648 ft 487 kts 150°
2026-04-30 01:10 -17.34661 -46.71116 30936 ft 485 kts 150°
2026-04-30 01:10 -17.37572 -46.69342 31256 ft 483 kts 150°
2026-04-30 01:10 -17.40477 -46.67562 31563 ft 482 kts 150°
2026-04-30 01:10 -17.43369 -46.65785 31839 ft 481 kts 150°
2026-04-30 01:11 -17.46254 -46.64010 32114 ft 481 kts 150°
2026-04-30 01:11 -17.49140 -46.62233 32417 ft 480 kts 150°
2026-04-30 01:11 -17.52025 -46.60458 32669 ft 480 kts 151°
2026-04-30 01:11 -17.54910 -46.58683 32928 ft 480 kts 151°
2026-04-30 01:12 -17.57753 -46.56933 33231 ft 479 kts 151°
2026-04-30 01:12 -17.60625 -46.55165 33606 ft 476 kts 151°
2026-04-30 01:12 -17.63474 -46.53410 34005 ft 473 kts 151°
2026-04-30 01:12 -17.66311 -46.51663 34276 ft 472 kts 151°
2026-04-30 01:13 -17.69156 -46.49910 34482 ft 473 kts 151°
2026-04-30 01:13 -17.71996 -46.48160 34674 ft 474 kts 151°
2026-04-30 01:13 -17.74848 -46.46401 34814 ft 476 kts 151°
2026-04-30 01:13 -17.77704 -46.44640 35042 ft 476 kts 151°
2026-04-30 01:14 -17.80554 -46.42880 35321 ft 474 kts 152°
2026-04-30 01:14 -17.83394 -46.41126 35608 ft 473 kts 152°
2026-04-30 01:14 -17.86196 -46.39395 35867 ft 472 kts 152°
2026-04-30 01:14 -17.89027 -46.37646 36071 ft 472 kts 152°
2026-04-30 01:15 -17.91854 -46.35899 36298 ft 471 kts 152°
2026-04-30 01:15 -17.94674 -46.34155 36541 ft 470 kts 152°
2026-04-30 01:15 -17.97499 -46.32407 36751 ft 471 kts 152°
2026-04-30 01:15 -18.00317 -46.30663 36952 ft 470 kts 152°
2026-04-30 01:16 -18.03138 -46.28916 37079 ft 472 kts 152°
2026-04-30 01:16 -18.05977 -46.27158 37071 ft 474 kts 152°
2026-04-30 01:16 -18.11632 -46.23651 37071 ft 470 kts 152°
2026-04-30 01:17 -18.17214 -46.20184 37075 ft 467 kts 152°
2026-04-30 01:17 -18.22799 -46.16719 37081 ft 465 kts 152°
2026-04-30 01:18 -18.28377 -46.13261 37086 ft 464 kts 152°
2026-04-30 01:18 -18.33951 -46.09801 37098 ft 465 kts 152°
2026-04-30 01:19 -18.39539 -46.06325 37088 ft 468 kts 152°
2026-04-30 01:19 -18.45150 -46.02831 37089 ft 470 kts 152°
2026-04-30 01:20 -18.50799 -45.99310 37094 ft 472 kts 152°
2026-04-30 01:20 -18.56471 -45.95771 37094 ft 475 kts 152°
2026-04-30 01:21 -18.62130 -45.92237 37086 ft 477 kts 152°
2026-04-30 01:21 -18.67843 -45.88667 37087 ft 478 kts 152°
2026-04-30 01:22 -18.73565 -45.85087 37080 ft 478 kts 152°
2026-04-30 01:22 -18.79287 -45.81502 37084 ft 478 kts 152°
2026-04-30 01:23 -18.85004 -45.77936 37082 ft 477 kts 152°
2026-04-30 01:23 -18.90747 -45.74446 37083 ft 475 kts 153°
2026-04-30 01:24 -18.96479 -45.70976 37087 ft 474 kts 152°
2026-04-30 01:24 -19.02185 -45.67503 37073 ft 473 kts 153°
2026-04-30 01:25 -19.07877 -45.64028 37077 ft 472 kts 152°
2026-04-30 01:25 -19.13559 -45.60553 37078 ft 471 kts 152°
2026-04-30 01:26 -19.19206 -45.57097 37076 ft 472 kts 152°
2026-04-30 01:26 -19.24887 -45.53620 37073 ft 472 kts 152°
2026-04-30 01:27 -19.30582 -45.50131 37074 ft 473 kts 152°
2026-04-30 01:27 -19.36282 -45.46635 37071 ft 474 kts 152°
2026-04-30 01:28 -19.41995 -45.43121 37067 ft 475 kts 152°
2026-04-30 01:28 -19.47706 -45.39599 37074 ft 476 kts 152°
2026-04-30 01:29 -19.53407 -45.36087 37079 ft 477 kts 152°
2026-04-30 01:29 -19.59150 -45.32542 37075 ft 478 kts 152°
2026-04-30 01:30 -19.64897 -45.28989 37078 ft 479 kts 152°
2026-04-30 01:30 -19.70656 -45.25424 37085 ft 479 kts 152°
2026-04-30 01:31 -19.76423 -45.21850 37081 ft 480 kts 152°
2026-04-30 01:31 -19.82204 -45.18263 37074 ft 480 kts 153°
2026-04-30 01:32 -19.87983 -45.14686 37083 ft 480 kts 153°
2026-04-30 01:32 -19.93770 -45.11141 37082 ft 480 kts 153°
2026-04-30 01:33 -19.99519 -45.07619 37088 ft 480 kts 153°
2026-04-30 01:33 -20.05297 -45.04069 37088 ft 480 kts 153°
2026-04-30 01:34 -20.11077 -45.00509 37092 ft 480 kts 153°
2026-04-30 01:34 -20.16849 -44.96952 37091 ft 480 kts 153°
2026-04-30 01:35 -20.22643 -44.93378 37096 ft 480 kts 153°
2026-04-30 01:35 -20.28425 -44.89807 37093 ft 480 kts 153°
2026-04-30 01:36 -20.34209 -44.86232 37099 ft 481 kts 153°
2026-04-30 01:36 -20.39963 -44.82671 37099 ft 482 kts 153°
2026-04-30 01:37 -20.45770 -44.79073 37102 ft 483 kts 153°
2026-04-30 01:37 -20.51572 -44.75442 37115 ft 484 kts 152°
2026-04-30 01:38 -20.57309 -44.71672 37107 ft 485 kts 151°
2026-04-30 01:38 -20.63046 -44.67874 37109 ft 485 kts 152°
2026-04-30 01:39 -20.68799 -44.64084 37113 ft 486 kts 152°
2026-04-30 01:39 -20.74555 -44.60297 37110 ft 486 kts 152°
2026-04-30 01:40 -20.80271 -44.56538 37108 ft 485 kts 152°
2026-04-30 01:40 -20.86085 -44.52866 37109 ft 485 kts 153°
2026-04-30 01:41 -20.91909 -44.49228 37112 ft 484 kts 153°
2026-04-30 01:41 -20.97716 -44.45564 37111 ft 484 kts 153°
2026-04-30 01:42 -21.03516 -44.41899 37117 ft 484 kts 153°
2026-04-30 01:42 -21.09322 -44.38233 37113 ft 485 kts 153°
2026-04-30 01:43 -21.15098 -44.34564 37114 ft 485 kts 153°
2026-04-30 01:43 -21.20840 -44.30903 37085 ft 467 kts 153°
2026-04-30 01:44 -21.23588 -44.29151 37096 ft 453 kts 153°
2026-04-30 01:44 -21.26267 -44.27436 36978 ft 443 kts 153°